TimePDT,TemperatureF,Dew PointF,Humidity,Sea Level PressureIn,VisibilityMPH,Wind Direction,Wind SpeedMPH,Gust SpeedMPH,PrecipitationIn,Events,Conditions,WindDirDegrees,DateUTC
12:52 AM,50.0,24.1,36,29.77,-9999.0,NE,5.8,-,N/A,,Unknown,40,2013-05-04 07:52:00
1:52 AM,46.9,23.0,39,29.76,-9999.0,NE,6.9,-,N/A,,Unknown,50,2013-05-04 08:52:00
2:52 AM,46.9,21.9,37,29.75,-9999.0,NE,6.9,-,N/A,,Unknown,40,2013-05-04 09:52:00
3:52 AM,44.1,21.0,40,29.74,-9999.0,ENE,8.1,-,N/A,,Unknown,60,2013-05-04 10:52:00
4:52 AM,41.0,19.9,43,29.75,-9999.0,ENE,6.9,-,N/A,,Unknown,60,2013-05-04 11:52:00
5:52 AM,39.9,19.9,45,29.75,-9999.0,NE,6.9,-,N/A,,Unknown,50,2013-05-04 12:52:00
6:52 AM,43.0,19.9,40,29.76,-9999.0,NE,3.5,-,N/A,,Unknown,50,2013-05-04 13:52:00
7:52 AM,59.0,25.0,27,29.74,-9999.0,Calm,Calm,-,N/A,,Unknown,0,2013-05-04 14:52:00
8:52 AM,66.9,23.0,19,29.75,-9999.0,Calm,Calm,-,N/A,,Unknown,0,2013-05-04 15:52:00
9:52 AM,73.0,15.1,11,29.73,-9999.0,South,6.9,-,N/A,,Unknown,190,2013-05-04 16:52:00
10:52 AM,75.0,18.0,12,29.74,-9999.0,WSW,11.5,-,N/A,,Unknown,250,2013-05-04 17:52:00
11:52 AM,77.0,12.9,9,29.72,-9999.0,WSW,13.8,-,N/A,,Unknown,240,2013-05-04 18:52:00
12:52 PM,77.0,12.9,9,29.70,-9999.0,SW,16.1,20.7,N/A,,Unknown,220,2013-05-04 19:52:00
1:52 PM,78.1,26.1,15,29.70,-9999.0,West,12.7,24.2,N/A,,Unknown,260,2013-05-04 20:52:00
2:52 PM,77.0,30.0,18,29.70,-9999.0,SW,18.4,25.3,N/A,,Unknown,230,2013-05-04 21:52:00
3:52 PM,72.0,32.0,23,29.71,-9999.0,SSW,21.9,27.6,N/A,,Unknown,210,2013-05-04 22:52:00
4:52 PM,71.1,28.0,20,29.73,-9999.0,WSW,17.3,24.2,N/A,,Unknown,240,2013-05-04 23:52:00
5:52 PM,69.1,30.9,24,29.73,-9999.0,SW,13.8,-,N/A,,Unknown,230,2013-05-05 00:52:00
6:52 PM,66.0,21.9,19,29.74,-9999.0,WSW,12.7,-,N/A,,Unknown,240,2013-05-05 01:52:00
7:52 PM,57.9,30.0,35,29.75,-9999.0,SSW,10.4,-,N/A,,Unknown,210,2013-05-05 02:52:00
8:52 PM,55.9,28.9,36,29.75,-9999.0,SW,5.8,-,N/A,,Unknown,230,2013-05-05 03:52:00
9:52 PM,48.9,30.9,50,29.77,-9999.0,Calm,Calm,-,N/A,,Unknown,0,2013-05-05 04:52:00
10:52 PM,48.9,35.1,59,29.78,-9999.0,SSW,3.5,-,N/A,,Unknown,210,2013-05-05 05:52:00
11:52 PM,43.0,34.0,71,29.79,-9999.0,Calm,Calm,-,N/A,,Unknown,0,2013-05-05 06:52:00